Overview Statistics Trail Chart Weather Telemetry Raw packets
 

This is the latest recevied weather packets stored in our database for station/object PE1RXF-13. If no packets are shown the sender has not sent any weather packets the latest 10 day(s).

<< 3 4 5 6 7 8 9 >>
Time Temp. Humidity Pressure Rain* Wind** Luminosity Snow
1788568551 12.78° C 99% 1012.6 hPa 0 mm - 0 W/m² -
1788567448 12.78° C 99% 1012.5 hPa 0 mm - 0 W/m² -
1788566345 12.78° C 99% 1012.4 hPa 0 mm - 0 W/m² -
1788565242 13.33° C 99% 1012.4 hPa 0 mm - 0 W/m² -
1788564139 13.33° C 99% 1012.3 hPa 0 mm - 0 W/m² -
1788563036 13.89° C 99% 1012.1 hPa 0 mm - 0 W/m² -
1788561933 14.44° C 99% 1012.1 hPa 0 mm - 0 W/m² -
1788560830 14.44° C 99% 1011.9 hPa 0 mm - 0 W/m² -
1788558624 13.89° C 99% 1011.6 hPa 0 mm - 0 W/m² -
1788557521 13.89° C 99% 1011.6 hPa 0 mm - 0 W/m² -
1788556418 14.44° C 99% 1011.5 hPa 0 mm - 0 W/m² -
1788555315 14.44° C 99% 1011.5 hPa 0 mm - 0 W/m² -
1788554213 14.44° C 99% 1011.3 hPa 0 mm - 0 W/m² -
1788553109 15° C 99% 1011.2 hPa 0 mm - 0 W/m² -
1788552006 15° C 99% 1011.1 hPa 0 mm - 0 W/m² -
1788550903 15° C 99% 1011 hPa 0 mm - 0 W/m² -
1788549800 15° C 99% 1010.8 hPa 0 mm - 0 W/m² -
1788548697 15° C 99% 1010.5 hPa 0 mm - 0 W/m² -
1788547594 15.56° C 99% 1010.3 hPa 0 mm - 0 W/m² -
1788546491 15.56° C 99% 1009.9 hPa 0 mm - 0 W/m² -
1788545388 15.56° C 99% 1009.7 hPa 0 mm - 0 W/m² -
1788544285 15.56° C 99% 1009.5 hPa 0 mm - 1 W/m² -
1788543182 16.11° C 99% 1009.3 hPa 0 mm - 4 W/m² -
1788542079 16.11° C 99% 1009.1 hPa 0 mm - 4 W/m² -
1788540976 16.67° C 99% 1008.9 hPa 0 mm - 11 W/m² -

* Rain latest hour (hover to see other rain measurements)
** Current wind speed in m/s (hover to see current wind gust speed)